Details From SBNT - Augusto Severo
To GGOV - Bissau Oswaldo Vieira Intl
Flight Number -
Tags Novice Generated
Created
Modified
Stats Distance 1,593 nm / 2,949 km
Max Altitude 38,300 ft / 11,674 m
Waypoints 17
Social Downloads 1
Likes 0
Share VATSIM

Download

Looking for another format? Having issues loading an existing format? Contact us
Advertisement - Login to hide

Notes

Departing runway 32 SBNT. Arriving runway 2 GGOV.

Route

SBNT -05.85_-035.30 -05.79_-035.32 -05.73_-035.32 -05.68_-035.29 -05.64_-035.26 -03.86_-033.27 -02.08_-031.30 +00.30_-029.33 +01.49_-027.37 +03.27_-025.40 +05.04_-023.42 +06.81_-021.43 +08.58_-019.43 +11.77_-015.72 +11.81_-015.68 GGOV

ID Type Via Altitude Latitude Longitude Leg Dist Tot Dist Heading (true) Name
O SBNT APT - 0 ft / 0 m -5.90184˚ -35.25161˚ - 0 nm - -
-05.85_-035.30 LATLON - 120 ft / 37 m -5.84553˚ -35.29731˚ 4 nm 4 nm 321° / 321° -
-05.79_-035.32 LATLON - 390 ft / 119 m -5.79077˚ -35.31617˚ 3 nm 7 nm 341° / 341° -
-05.73_-035.32 LATLON - 820 ft / 250 m -5.73288˚ -35.31508˚ 3 nm 11 nm 1° / 1° -
-05.68_-035.29 LATLON - 1,400 ft / 427 m -5.67887˚ -35.29415˚ 3 nm 14 nm 21° / 21° -
-05.64_-035.26 LATLON - 2,130 ft / 649 m -5.63523˚ -35.25592˚ 3 nm 18 nm 41° / 41° -
-03.86_-033.27 LATLON - 38,300 ft / 11,674 m -3.85966˚ -33.27423˚ 159 nm 177 nm 48° / 48° -
-02.08_-031.30 LATLON - 38,300 ft / 11,674 m -2.07968˚ -31.30185˚ 159 nm 337 nm 48° / 48° -
+00.30_-029.33 LATLON - 38,300 ft / 11,674 m -0.29724˚ -29.33392˚ 159 nm 496 nm 48° / 48° -
+01.49_-027.37 LATLON - 38,300 ft / 11,674 m 1.48554˚ -27.36662˚ 159 nm 656 nm 48° / 48° -
+03.27_-025.40 LATLON - 38,300 ft / 11,674 m 3.26658˚ -25.39615˚ 159 nm 815 nm 48° / 48° -
+05.04_-023.42 LATLON - 38,300 ft / 11,674 m 5.04374˚ -23.41867˚ 159 nm 974 nm 48° / 48° -
+06.81_-021.43 LATLON - 38,300 ft / 11,674 m 6.81490˚ -21.43036˚ 159 nm 1134 nm 48° / 48° -
+08.58_-019.43 LATLON - 38,300 ft / 11,674 m 8.57786˚ -19.42734˚ 159 nm 1293 nm 48° / 49° -
+11.77_-015.72 LATLON - 390 ft / 119 m 11.76682˚ -15.72183˚ 290 nm 1584 nm 49° / 49° -
+11.81_-015.68 LATLON - 120 ft / 37 m 11.80978˚ -15.68219˚ 3 nm 1588 nm 42° / 42° -
O GGOV APT - 0 ft / 0 m 11.87683˚ -15.65437˚ 4 nm 1592 nm 22° / 22° -

Altitude Profile

Advertisement - Login to hide

Weather


0- 5 10 15 20 25 30 35+ Temperature / ° C

Clouds and Precipitation
Forecast for 2018-05-22 18:00 UTC. Updated 3 hours ago

Ground ~20,000 ft ~40,000 ft Winds

SBNT

Details ICAO SBNT (NAT)
Name Augusto Severo
Region Brazil
Timezone America/Fortaleza (UTC-3.0)
Stats Elevation 169 ft / 52 m (AMSL)
Location -5.911747° -35.247709°
Runways 3
Magnetic Variation 21.374° W

METAR

SBNT 221900Z 14014KT 9999 SCT030 29/21 Q1012

Decode

TAF

TAF SBNT 221600Z 2218/2318 12014KT 9999 SCT023 TN24/2308Z TX31/2315Z BECMG 2221/2222 18007KT BECMG 2311/2312 12016KT RMK PCN

Decode

Departure Runways

ID Width Length Bearing (true) Bearing (mag) Surface Threshold Offset Overrun Length
12 148 ft / 45 m 5,972 ft / 1,820 m 98.98° 120.35° Asphalt 0 ft / 0 m 0 ft / 0 m
16L 148 ft / 45 m 8,561 ft / 2,609 m 141.08° 162.45° Asphalt 0 ft / 0 m 279 ft / 85 m
16R 148 ft / 45 m 5,912 ft / 1,802 m 141.12° 162.49° Asphalt 0 ft / 0 m 1,350 ft / 411 m
30 148 ft / 45 m 5,972 ft / 1,820 m 278.98° 300.35° Asphalt 0 ft / 0 m 0 ft / 0 m
34L 148 ft / 45 m 5,912 ft / 1,802 m 321.12° 342.49° Asphalt 0 ft / 0 m 0 ft / 0 m
34R 148 ft / 45 m 8,561 ft / 2,609 m 321.08° 342.45° Asphalt 0 ft / 0 m 0 ft / 0 m

GGOV

Details ICAO GGOV (OXB)
Name BISSAU OSWALDO VIEIRA INTL
Region Guinea Bissau
Timezone Africa/Bissau (UTC+0.0)
Stats Elevation 129 ft / 39 m (AMSL)
Location 11.890166° -15.648833°
Runways 1
Magnetic Variation 7.191° W

METAR

GGOV 221900Z 26009KT CAVOK 30/22 Q1008 NOSIG

Decode

TAF

TAF GGOV 221700Z 2218/2318 33010KT CAVOK BECMG 2306/2308 16005KT= TAF GQPP 221700Z 2218/2318 36020KT 7000 NSC

Decode

Destination Runways

ID Width Length Bearing (true) Bearing (mag) Surface Threshold Offset Overrun Length
03 148 ft / 45 m 10,509 ft / 3,203 m 22.10° 29.29° Asphalt 0 ft / 0 m 1,312 ft / 400 m
21 148 ft / 45 m 10,509 ft / 3,203 m 202.10° 209.29° Asphalt 0 ft / 0 m 656 ft / 200 m